#timestamp,LO_Frequency,Hit,StdDev 
1674817215.5,286047002.1,P
1674817235.3,286047001.9,N
1674817255.1,286047002.6,N
1674817275.9,286046998.2,N
1674817295.7,286047004.6,Y
1674817315.5,286047005.9,P
1674817335.4,286047004.4,N
1674817355.2,286047003.8,N
1674817375.0,286047004.1,N
1674817375.9,286047004.1,N
1674817395.8,286047002.1,N
1674817415.6,286047002.5,N
1674817435.4,286046999.7,N
1674817455.3,286047002.6,N
1674817475.1,286046999.7,N
1674817476.0,286046999.7,N
1674817495.8,286047001.5,N
1674817515.7,286047002.6,N
1674817535.5,286047002.3,N
1674817555.3,286046999.9,N
1674817575.2,286047001.4,N
1674817595.9,286047001.5,N
1674817615.7,286047001.9,N
1674817635.6,286047002.2,N
1674817655.4,286047001.3,N
1674817675.2,286046999.8,N
1674817695.1,286046999.7,N
1674817696.0,286046999.7,N
1674817715.8,286047002.0,N
1674817735.6,286047001.8,N
1674817755.5,286046999.7,N
1674817775.3,286047000.0,N
1674817795.1,286046999.8,N
1674817815.9,286047002.8,N
1674817835.7,286047000.9,N
1674817855.5,286047000.6,N
1674817875.4,286046999.7,N
1674817895.2,286047002.1,N
1674817915.0,286047002.7,N
1674817915.9,286047002.7,N
1674817935.8,286046999.8,N
1674817955.6,286047002.0,N
1674817975.4,286047000.1,N
1674817995.3,286047000.5,N
1674818015.1,286047000.8,N
1674818016.0,286047000.8,N
1674818035.8,286046998.2,N
1674818055.7,286047000.4,N
1674818075.5,286046998.2,N
1674818095.3,286047000.8,N
1674818115.2,286047001.0,N
1674818135.9,286047000.9,N
1674818155.7,286047000.4,N
1674818175.6,286047001.6,N
1674818195.4,286047002.7,N
1674818215.2,286047001.0,N
1674818235.1,286046999.7,N
1674818236.0,286046999.7,N
1674818255.8,286047000.2,N
1674818275.6,286046999.9,N
1674818295.5,286046999.9,N
1674818315.3,286047000.6,N
1674818335.1,286047000.4,N
1674818355.9,286047001.0,N
1674818375.7,286047001.2,N
1674818395.5,286046998.1,N
1674818415.4,286047001.0,N
1674818435.2,286046999.9,N
1674818455.0,286047000.4,N
1674818455.9,286047000.4,N
1674818475.8,286047000.9,N
1674818495.6,286046999.5,N
1674818515.4,286047000.0,N
1674818535.3,286047000.5,N
1674818555.1,286047001.0,N
1674818556.0,286047001.0,N
1674818575.8,286047000.7,N
1674818595.7,286047001.1,N
1674818615.5,286046998.4,N
1674818635.3,286046998.5,N
1674818655.2,286047001.2,N
1674818675.9,286047000.9,N
1674818695.7,286047000.8,N
1674818715.6,286046998.7,N
1674818735.4,286046999.1,N
1674818755.2,286046998.8,N
1674818775.1,286046998.6,N
1674818776.0,286046998.6,N
1674818795.8,286046998.1,N
1674818815.6,286046998.6,N
1674818835.5,286046999.0,N
1674818855.3,286046998.9,N
1674818875.1,286046999.6,N
1674818895.9,286046998.8,N
1674818915.7,286047001.0,N
1674818935.5,286046998.2,N
1674818955.4,286046998.2,N
1674818975.2,286047001.1,N
1674818995.0,286047001.2,N
1674818995.9,286047001.2,N
1674819015.8,286047000.3,N
1674819035.6,286047000.7,N
1674819055.4,286046998.6,N
1674819075.3,286046998.1,N
1674819095.1,286047001.1,N
1674819115.8,286046998.5,N
1674819135.7,286047000.7,N
1674819155.5,286046998.2,N
1674819175.3,286047001.2,N
1674819195.2,286046998.2,N
1674819215.9,286046998.5,N
1674819235.7,286046998.8,N
1674819255.6,286047001.2,N
1674819275.4,286047000.9,N
1674819295.2,286046998.5,N
1674819315.1,286046997.0,N
1674819316.0,286046997.0,N
1674819335.8,286046996.7,N
1674819355.6,286046997.0,N
1674819375.5,286046996.7,N
1674819395.3,286046996.7,N
1674819415.1,286046999.6,N
1674819435.9,286046999.5,N
1674819455.7,286046999.0,N
1674819475.5,286047000.8,N
1674819495.4,286046998.1,N
1674819515.2,286046998.4,N
1674819535.0,286046998.1,N
1674819535.9,286046998.1,N
1674819555.8,286046999.0,N
1674819575.6,286046998.8,N
1674819595.4,286046999.1,N
1674819615.3,286046998.1,N
1674819635.1,286046998.7,N
1674819655.8,286046998.3,N
1674819675.7,286046996.8,N
1674819695.5,286046996.9,N
1674819715.3,286046994.2,Y
1674819735.2,286047004.3,P
1674819755.0,286047000.2,N
1674819755.9,286047000.2,N
1674819775.7,286047000.5,N
1674819795.6,286047000.7,N
1674819815.4,286046998.8,N
1674819835.2,286046998.9,N
1674819855.1,286046999.6,N
1674819856.0,286046999.6,N
1674819875.8,286046997.0,N
1674819895.6,286046996.5,N
1674819915.5,286046997.3,N
1674819935.3,286046996.8,N
1674819955.1,286046997.6,N
1674819975.9,286046997.0,N
1674819995.7,286046999.3,N
1674820015.5,286046996.6,N
1674820035.4,286046996.8,N
1674820055.2,286046999.3,N
1674820075.0,286046998.8,N
1674820075.9,286046998.8,N
1674820095.8,286046998.7,N
1674820115.6,286046996.5,N
1674820135.4,286046999.4,N
1674820155.3,286046997.2,N
1674820175.1,286046997.0,N
1674820195.8,286046997.3,N
1674820215.7,286046996.6,N
1674820235.5,286046996.7,N
1674820255.3,286046997.1,N
1674820275.2,286046997.2,N
1674820295.0,286046994.9,Y
1674820295.9,286046994.9,P
1674820315.7,286046998.8,N
1674820335.6,286046997.0,N
1674820355.4,286046999.4,N
1674820375.2,286046999.2,N
1674820395.1,286046996.5,N
1674820396.0,286046996.5,N
1674820415.8,286046999.5,N
1674820435.7,286046996.9,N
1674820455.5,286046997.2,N
1674820475.3,286046997.8,N
1674820495.2,286046997.8,N
1674820515.9,286046997.4,N
1674820535.7,286046996.9,N
1674820555.6,286046997.1,N
1674820575.4,286046999.2,N
1674820595.2,286046999.6,N
1674820615.1,286046996.9,N
1674820616.0,286046996.9,N
1674820635.8,286046999.0,N
1674820655.6,286046999.2,N
1674820675.5,286046994.1,Y
1674820695.3,286046998.4,P
1674820715.1,286046999.8,N
1674820735.9,286047000.4,N
1674820755.7,286047000.5,N
1674820775.5,286047002.6,N
1674820795.4,286047003.9,N
